TimeEST,TemperatureF,Dew PointF,Humidity,Sea Level PressureIn,VisibilityMPH,Wind Direction,Wind SpeedMPH,Gust SpeedMPH,PrecipitationIn,Events,Conditions,WindDirDegrees,DateUTC
12:54 AM,26.1,19.9,78,30.27,-9999.0,North,-9999.0,-,N/A,,Unknown,0,2013-02-23 05:54:00
1:54 AM,26.1,19.9,78,30.25,-9999.0,North,-9999.0,-,N/A,,Unknown,0,2013-02-23 06:54:00
2:54 AM,26.1,21.0,81,30.23,-9999.0,North,-9999.0,-,N/A,,Unknown,0,2013-02-23 07:54:00
3:54 AM,28.9,19.9,69,30.21,-9999.0,North,-9999.0,-,N/A,,Unknown,0,2013-02-23 08:54:00
4:54 AM,30.0,19.0,64,30.20,-9999.0,North,-9999.0,-,N/A,,Unknown,0,2013-02-23 09:54:00
5:54 AM,30.9,19.0,61,30.20,-9999.0,North,-9999.0,-,N/A,,Unknown,0,2013-02-23 10:54:00
6:54 AM,30.0,19.9,66,30.18,-9999.0,North,-9999.0,-,N/A,,Unknown,0,2013-02-23 11:54:00
7:54 AM,30.0,19.9,66,30.19,-9999.0,North,-9999.0,-,N/A,,Unknown,0,2013-02-23 12:54:00
8:54 AM,30.9,21.9,69,30.17,-9999.0,North,-9999.0,-,N/A,,Unknown,0,2013-02-23 13:54:00
9:54 AM,32.0,23.0,69,30.16,-9999.0,North,-9999.0,-,N/A,,Unknown,0,2013-02-23 14:54:00
10:54 AM,33.1,24.1,70,30.14,-9999.0,North,-9999.0,-,N/A,,Unknown,0,2013-02-23 15:54:00
11:54 AM,32.0,24.1,73,30.12,-9999.0,North,-9999.0,-,N/A,,Unknown,0,2013-02-23 16:54:00
12:54 PM,33.1,26.1,75,30.09,-9999.0,North,-9999.0,-,N/A,,Unknown,0,2013-02-23 17:54:00
1:54 PM,30.9,27.0,85,30.08,-9999.0,North,-9999.0,-,N/A,,Unknown,0,2013-02-23 18:54:00
2:54 PM,32.0,28.9,88,30.06,-9999.0,North,-9999.0,-,0.01,,Unknown,0,2013-02-23 19:54:00
3:54 PM,30.9,28.9,92,30.05,-9999.0,North,-9999.0,-,0.03,,Unknown,0,2013-02-23 20:54:00
4:54 PM,30.9,30.0,96,30.04,-9999.0,North,-9999.0,-,0.04,,Unknown,0,2013-02-23 21:54:00
5:54 PM,30.9,30.0,96,30.02,-9999.0,North,-9999.0,-,0.01,,Unknown,0,2013-02-23 22:54:00
6:54 PM,30.9,28.9,92,30.01,-9999.0,North,-9999.0,-,0.03,,Unknown,0,2013-02-23 23:54:00
7:54 PM,30.9,30.0,96,30.00,-9999.0,North,-9999.0,-,0.02,,Unknown,0,2013-02-24 00:54:00
8:54 PM,30.9,30.0,96,29.99,-9999.0,North,-9999.0,-,0.04,,Unknown,0,2013-02-24 01:54:00
9:54 PM,30.9,30.0,96,29.98,-9999.0,North,-9999.0,-,0.03,,Unknown,0,2013-02-24 02:54:00
10:54 PM,30.9,30.0,96,29.94,-9999.0,North,-9999.0,-,0.03,,Unknown,0,2013-02-24 03:54:00
11:54 PM,30.9,30.0,96,29.93,-9999.0,North,-9999.0,-,0.01,,Unknown,0,2013-02-24 04:54:00